Find Starlink 4359

NORAD ID: 53226 Int'l Des: 2022-084 Owner: SPXS Country: US Constellation: starlink operational
LEOCIRCULARRETROGRADESSO

Live Position

Loading 3D Globe...

About Starlink 4359

Description loading...

Upcoming Passes

Passes for default location (London). Set your location on the main map for personalized predictions.

Altitude History

Loading altitude history...

Two-Line Element Set

1 53226U 22084AP 26104.60405471 .00001116 00000-0 81553-4 0 9999
2 53226 97.6019 165.4892 0001797 89.7820 270.3612 15.05658481204713
Epoch: Apr 14, 2026 • Age: 15 hours

Current Status

Altitude 573.7 km
Velocity 7.57 km/s
Sub-Earth Point -59.79°S, 40.78°E
Launch Date Jul 22, 2022
Age 3.7 years
Type internet

Technical Details

Classification Payload
Mass 297.00 kg
Dry Mass 275.00 kg
Total Mass 297.00 kg
Length 0.20 m
Diameter 2.80 m
Span 9.00 m
Shape Box + pan
Manufacturer SPXS
Bus Type Starlink
Phase Status In Orbit
Owner/State SPXS/US

Most Searched